GFSFLT1_250_rhum_345.txt.gz
RH
18 16 16 16 17 17 17 16 16 17 19 19 17 16 16 16 16 18 17 18 22 26 28 22 12 9 10 11 11 10 11 10
20 18 17 19 20 20 20 20 19 18 16 17 21 27 32 32 31 28 24 18 15 14 15 14 15 14 13 13 15 14 11 9
17 20 23 22 21 20 18 17 18 26 39 39 29 22 20 18 18 19 18 18 17 16 14 14 13 12 11 10 10 12 15 16
20 20 20 18 16 16 20 32 37 26 20 21 24 26 27 25 26 27 30 31 30 32 29 23 21 20 19 16 12 11 11 12
19 18 18 18 31 41 33 20 21 28 30 32 35 36 36 34 40 52 58 61 85 83 58 50 44 37 36 28 24 20 16 12
19 20 39 49 31 22 24 30 31 33 36 45 64 79 78 88 83 82 77 77 67 58 46 54 47 40 33 28 32 34 30 24
41 48 27 21 25 30 31 35 39 45 64 82 98 100 94 89 82 70 60 47 38 36 32 28 27 26 26 27 27 29 30 30
26 22 24 31 33 37 44 55 75 91 97 90 81 76 77 75 71 66 57 47 36 27 23 22 23 24 23 23 23 23 24 25
23 28 34 40 49 57 83 95 94 85 85 91 96 88 76 63 55 38 28 25 23 21 19 18 18 19 21 22 24 21 20 24
31 38 39 67 90 97 91 82 88 93 100 100 96 91 83 74 49 26 19 17 17 17 16 16 16 16 17 19 22 21 21 22
38 52 91 89 79 76 89 100 100 99 100 100 96 92 75 41 20 17 16 16 15 14 13 13 13 13 13 14 16 19 20 21
63 91 88 79 89 100 99 98 100 100 100 100 84 37 21 18 18 17 15 14 12 11 10 10 10 10 10 11 11 13 16 18
86 94 80 93 100 100 100 100 100 100 99 76 26 21 21 19 16 14 13 11 10 9 8 8 7 7 8 8 9 10 12 14
95 86 96 99 100 100 100 100 100 100 81 28 22 20 15 12 11 10 8 8 7 6 6 6 6 6 6 6 7 8 9 11
82 89 94 89 100 100 100 100 100 86 28 23 17 12 10 9 8 7 7 6 5 4 4 3 3 4 4 4 4 6 7 9
93 84 89 100 99 100 100 100 97 31 22 17 13 10 8 7 6 5 4 3 3 3 3 3 3 3 3 3 3 4 5 6
91 84 99 100 100 100 100 100 39 23 21 16 11 9 7 5 4 3 3 3 3 3 3 3 3 3 3 3 3 3 3 4
90 99 99 82 94 92 97 88 26 24 28 14 10 8 6 4 3 3 3 3 3 2 2 2 2 2 2 3 3 3 3 4
77 93 94 76 86 87 98 76 24 33 25 16 10 7 5 4 4 3 3 3 2 2 2 2 2 2 2 2 3 3 3 3

GFSFLT1_250_rhum_351.txt.gz
RH
12 12 12 13 15 15 14 15 16 17 18 19 18 17 16 16 18 19 17 18 17 16 15 14 13 12 12 11 11 11 12 12
10 11 13 17 19 18 18 17 16 16 16 16 19 26 29 28 29 28 22 20 19 19 19 20 18 18 17 17 18 20 22 20
11 12 14 14 18 20 20 25 28 26 24 21 20 20 22 25 26 29 30 34 40 37 33 31 28 23 20 18 16 14 14 14
23 24 23 26 28 27 24 20 22 26 27 29 31 36 41 45 46 46 44 44 50 44 41 44 44 63 61 42 28 23 20 16
18 19 21 20 18 17 23 31 36 43 56 66 70 68 63 64 67 60 57 47 45 47 54 56 58 51 49 45 40 31 26 25
16 15 16 18 24 33 44 51 61 57 53 61 67 71 71 73 73 73 73 71 67 67 66 66 61 53 54 56 44 35 33 28
28 22 24 30 39 52 62 57 60 66 75 77 77 78 78 74 69 67 61 51 44 40 38 44 58 70 75 77 65 55 35 35
38 43 46 58 71 67 64 70 76 79 83 86 80 65 45 34 38 44 44 38 32 24 21 20 20 22 39 62 72 76 66 45
67 64 69 69 65 73 77 86 91 92 86 74 50 41 54 69 75 67 52 44 30 18 15 15 16 16 17 20 42 62 63 56
70 72 73 85 83 86 90 84 83 88 60 38 56 70 76 70 53 35 23 12 10 9 9 9 10 11 14 14 15 21 39 41
82 86 91 77 87 90 82 78 81 37 37 60 71 78 61 39 23 13 8 7 6 6 6 7 7 7 8 10 13 14 16 25
79 92 74 93 100 91 78 69 37 36 58 73 77 57 37 22 10 6 5 6 6 5 5 5 5 6 6 8 9 11 14 16
88 86 88 97 94 89 78 56 30 51 66 77 64 39 25 11 7 6 6 5 5 5 4 3 3 4 5 6 7 8 10 14
90 84 84 97 97 82 74 42 35 55 70 68 48 32 17 7 6 6 5 4 4 4 4 3 3 3 4 5 6 7 8 10
88 86 93 100 92 84 70 35 41 55 65 59 39 26 9 7 6 5 4 4 3 3 3 3 3 3 3 3 5 6 7 8
92 99 100 100 97 85 64 31 43 65 69 52 32 16 7 6 5 4 4 4 3 3 3 3 2 2 3 3 3 4 6 7
100 100 92 93 98 74 55 30 48 67 59 42 27 10 7 6 5 4 4 4 3 3 3 2 2 2 3 3 3 3 5 6
100 100 95 98 92 68 46 31 52 65 54 42 24 9 7 7 5 4 4 3 3 2 3 2 2 2 2 3 3 3 3 5
99 100 91 93 88 64 45 32 53 69 58 44 22 9 9 7 5 4 3 3 3 2 2 2 2 2 2 3 3 3 3 4

GFSFLT1_250_rhum_357.txt.gz
RH
12 19 22 21 18 18 17 19 20 18 19 20 23 26 27 27 27 26 24 22 19 20 22 22 21 21 21 21 19 15 13 11
14 21 17 16 17 19 25 19 18 18 21 24 29 37 36 42 46 51 54 54 50 42 36 33 29 26 24 21 20 19 18 16
18 17 18 20 21 19 18 19 25 34 47 55 64 67 67 68 61 63 58 57 59 58 59 59 51 48 47 46 39 33 29 24
18 19 24 25 25 30 44 56 64 66 68 71 75 77 80 80 75 67 55 48 48 51 56 57 57 59 63 59 53 44 43 39
20 25 29 36 51 55 56 59 67 71 69 71 72 71 66 64 47 38 41 51 55 56 58 56 50 43 38 38 40 53 50 48
26 30 41 53 57 59 58 62 75 76 73 66 61 50 36 37 47 55 61 70 76 76 70 65 60 64 75 75 58 41 35 44
28 38 52 51 49 56 64 70 75 73 64 55 42 35 35 44 53 60 63 61 65 63 55 52 44 40 41 48 57 64 64 48
32 52 49 54 67 58 61 74 78 66 58 49 32 32 38 50 56 62 62 54 48 43 35 31 30 26 24 26 29 33 44 59
49 61 66 70 66 69 70 76 71 72 60 38 31 35 51 51 52 55 46 36 23 14 11 10 10 10 12 15 17 20 24 29
50 71 75 75 60 63 69 80 82 71 55 37 35 56 58 58 55 37 22 12 10 10 9 7 6 6 7 7 7 8 10 16
64 79 83 58 60 67 73 80 68 67 51 37 38 58 54 54 36 18 10 10 9 9 9 8 7 6 5 5 6 6 6 7
70 69 76 73 62 69 76 70 63 63 53 38 41 58 47 38 21 10 10 10 9 7 6 6 5 5 4 4 4 5 5 5
77 77 83 79 63 78 62 61 57 60 58 39 42 50 43 30 11 11 10 9 7 6 4 4 3 3 3 4 4 4 4 4
77 79 89 71 75 70 56 53 57 60 54 36 45 45 38 18 10 11 8 7 5 4 3 3 3 3 3 3 3 4 4 4
86 91 76 73 67 66 54 52 57 63 54 37 46 40 33 11 11 9 8 5 3 3 3 3 3 3 3 3 3 3 3 4
97 85 78 78 68 67 61 50 56 58 52 36 46 39 24 10 10 8 5 4 3 3 3 3 2 2 2 2 3 3 3 3
100 92 80 75 85 86 60 48 48 53 48 36 47 41 16 10 10 7 4 3 3 3 3 2 2 2 2 2 2 2 3 3
100 100 88 83 88 81 61 40 43 43 47 38 47 41 12 12 10 6 4 3 3 3 2 2 2 2 2 2 2 3 3 3
100 98 90 90 83 73 58 40 37 39 49 40 49 40 11 12 9 5 4 3 3 3 2 2 2 2 2 2 2 2 2 3

GFSFLT1_250_rhum_363.txt.gz
RH
47 21 14 14 14 13 15 27 36 35 39 44 49 54 53 49 45 41 41 45 49 58 47 46 50 49 45 38 32 24 18 15
32 18 15 15 15 14 20 32 43 52 52 51 48 47 44 42 40 38 33 32 31 32 31 30 32 38 40 36 36 38 37 30
23 16 15 16 16 15 23 36 48 53 52 56 58 60 57 53 51 56 54 44 37 33 33 35 38 42 44 46 48 44 37 33
19 16 16 17 17 17 29 42 53 60 54 64 61 58 63 54 46 48 54 52 40 33 32 39 44 46 48 49 48 45 48 48
18 18 19 18 17 21 37 55 71 77 67 72 68 67 69 57 53 54 64 66 59 45 39 38 43 48 48 49 49 49 47 42
18 21 20 18 18 26 50 68 79 68 62 69 67 69 53 48 43 45 48 47 43 44 38 38 47 57 54 52 50 46 44 40
20 22 19 19 19 32 63 79 77 69 72 65 69 57 48 41 38 36 34 34 33 35 36 39 44 44 49 48 42 37 37 36
22 22 20 20 21 38 71 78 72 75 75 66 59 52 47 44 38 36 32 29 29 32 35 35 38 39 33 28 24 21 19 18
24 23 21 21 24 47 71 76 76 80 71 62 60 61 57 50 42 35 30 30 31 32 32 28 21 13 10 9 9 10 10 10
24 24 23 22 33 65 83 89 89 84 78 79 72 60 50 43 34 32 30 29 32 33 24 11 8 9 9 9 10 11 11 11
25 26 24 28 52 88 96 100 96 94 83 73 58 49 43 39 39 34 30 32 31 15 8 9 9 8 7 7 8 8 9 11
28 27 27 40 78 99 100 100 98 82 72 59 50 48 45 43 37 33 34 32 12 9 8 6 5 4 4 4 5 6 6 7
30 27 38 88 94 100 100 100 89 75 69 57 51 46 45 37 34 34 36 12 10 7 5 4 4 3 3 3 3 4 4 5
28 36 88 98 100 97 100 93 74 69 63 58 49 44 36 38 37 39 15 12 8 5 4 4 4 3 3 3 3 3 3 4
33 50 99 100 100 100 100 85 73 65 63 56 40 36 43 42 41 24 13 10 7 4 4 3 3 3 3 3 3 3 3 3
55 98 100 100 100 100 91 76 72 71 59 44 39 45 44 43 39 16 12 10 6 4 4 3 3 2 2 2 3 3 3 3
100 100 100 100 100 96 79 81 76 65 50 40 42 46 49 45 28 16 12 10 7 4 4 3 3 2 2 2 2 3 3 3
100 100 100 99 98 81 88 75 65 58 46 42 44 48 53 48 21 16 12 10 8 5 4 3 3 3 2 2 2 3 3 3
100 100 100 93 81 83 71 63 56 52 52 47 42 57 57 51 20 15 13 11 9 5 4 3 3 3 3 3 2 2 3 3

GFSFLT1_250_rhum_366.txt.gz
RH
100 100 99 73 46 23 16 15 14 14 22 41 38 44 49 54 49 45 43 40 35 31 32 30 31 32 33 35 39 39 36 29
100 100 90 62 37 18 16 14 14 15 25 44 46 46 50 55 47 44 44 42 41 49 44 38 39 31 31 34 34 32 27 29
100 94 79 47 24 16 16 15 15 16 27 47 55 53 52 58 56 54 55 52 44 44 42 46 47 40 35 35 34 36 40 43
91 91 60 32 20 17 17 16 16 18 29 52 58 65 61 63 56 52 46 42 39 38 35 36 40 46 43 44 37 33 34 37
87 63 40 26 20 18 18 18 18 23 46 77 91 85 73 68 68 64 54 47 42 38 38 36 33 29 30 28 33 37 35 33
62 45 31 24 20 20 19 19 20 32 64 86 94 91 85 82 77 68 57 51 48 45 40 35 29 27 25 26 25 26 32 33
46 36 26 23 21 21 20 20 26 48 85 94 95 89 91 79 67 55 48 47 46 43 35 28 25 23 21 21 22 27 30 32
40 28 23 23 23 22 21 23 36 70 88 92 89 83 70 59 56 54 50 45 41 34 29 25 21 19 20 22 23 23 23 26
30 27 26 25 25 24 23 29 56 91 98 96 91 72 65 63 57 50 43 39 32 28 24 23 23 19 11 8 8 9 10 8
27 27 26 27 27 25 31 51 79 98 100 94 85 76 66 57 52 43 37 29 27 28 29 28 14 9 8 8 6 6 7 8
25 28 30 30 28 29 65 78 99 100 93 97 87 71 61 57 47 33 32 34 38 37 26 13 11 8 6 4 4 4 4 5
30 33 34 31 29 67 85 100 100 96 92 90 69 62 58 45 35 33 36 39 42 21 13 12 8 6 4 4 4 3 3 4
33 35 33 29 45 90 100 100 98 100 97 78 63 56 47 36 35 35 39 46 23 13 12 10 7 5 4 4 3 3 3 4
33 34 31 40 89 96 100 98 97 94 77 66 62 49 40 41 38 42 46 31 15 13 10 8 5 4 3 3 3 3 3 3
32 31 41 85 83 100 100 96 92 79 66 65 51 42 42 42 43 46 43 16 14 12 9 7 5 4 3 3 2 2 2 3
32 43 87 92 97 98 100 93 75 68 67 54 40 36 41 44 48 46 22 15 13 11 9 7 4 3 3 3 2 2 2 3
45 89 96 97 100 97 84 74 75 69 49 38 34 38 46 52 47 46 18 15 13 11 9 7 4 3 3 3 2 2 2 3
87 98 96 97 94 90 84 76 57 41 34 32 30 39 47 50 50 42 18 15 13 11 9 7 4 3 3 3 2 2 2 3
99 99 100 98 89 84 70 45 38 35 38 42 32 36 53 61 54 36 18 15 13 11 9 7 4 3 3 3 2 2 2 3

GFSFLT1_250_rhum_369.txt.gz
RH
96 93 100 100 100 88 72 63 52 33 20 15 15 16 24 38 48 47 55 52 50 50 47 46 47 44 37 34 37 35 36 37
99 100 100 100 100 89 66 52 40 25 17 16 17 17 25 44 50 45 48 56 56 54 47 44 42 42 45 45 42 39 33 32
83 95 99 88 79 67 60 47 34 20 16 16 17 21 42 70 71 66 69 67 63 55 52 47 44 42 40 36 34 37 42 40
58 67 68 72 69 63 51 37 24 19 17 17 17 21 39 67 80 84 78 69 61 56 55 58 55 45 42 38 39 33 29 30
71 78 68 81 79 63 40 26 20 19 20 19 21 35 60 76 84 80 73 63 61 51 52 52 49 45 40 38 35 32 28 27
74 82 80 78 58 38 25 20 21 22 21 22 36 56 77 96 100 99 97 88 72 62 55 49 47 43 38 35 32 29 24 21
68 69 65 54 37 24 20 21 24 24 23 32 63 89 97 99 100 98 91 76 69 58 51 50 42 34 30 27 24 23 22 20
62 58 45 30 22 21 23 26 29 26 31 54 91 99 100 100 94 88 75 73 65 58 50 37 26 25 25 26 25 22 19 17
48 36 25 22 23 27 28 30 30 39 61 89 100 100 92 76 73 71 65 56 50 41 31 28 28 31 32 27 17 12 11 10
28 22 22 26 28 29 29 32 32 67 72 100 100 100 84 72 66 59 50 43 34 30 29 31 38 34 18 15 13 12 10 9
21 23 27 28 28 27 32 33 43 72 87 100 100 86 74 68 57 50 42 34 30 27 36 41 30 15 14 12 11 9 8 6
26 28 27 26 27 29 35 38 55 66 87 93 81 72 67 57 51 39 32 34 32 42 42 24 15 13 12 10 8 7 5 4
26 25 25 26 30 34 39 54 62 85 86 88 78 69 64 51 34 31 38 37 44 45 24 15 13 11 10 8 6 4 3 3
23 23 24 29 36 33 47 66 78 84 82 78 72 64 43 30 29 37 40 43 47 29 15 12 11 10 8 6 4 3 3 3
21 21 28 30 38 45 71 91 87 82 82 72 55 37 33 30 29 33 38 44 38 16 13 12 10 8 7 5 3 3 3 3
23 27 30 38 58 76 86 90 88 83 70 46 38 37 48 47 39 32 40 46 24 15 13 11 9 7 6 4 3 3 3 2
26 34 48 77 92 92 90 88 85 62 44 42 52 56 50 43 43 32 43 44 18 14 12 10 8 7 5 3 3 3 3 2
54 74 83 88 96 99 97 68 45 47 60 60 44 32 28 28 39 37 50 34 16 13 12 9 8 6 5 3 3 3 2 2
69 83 93 90 82 69 61 58 66 60 39 31 30 30 28 30 37 48 49 26 16 14 11 9 7 6 5 3 3 3 2 2

GFSFLT1_250_rhum_372.txt.gz
RH
46 43 40 42 46 52 80 82 78 74 66 67 53 30 19 16 17 19 24 42 66 65 64 63 60 58 55 50 48 52 53 36
48 44 44 46 46 56 67 91 95 87 79 64 40 21 17 18 17 21 33 53 76 82 80 74 72 64 63 54 47 46 46 45
41 43 55 64 90 88 92 76 71 66 60 42 21 18 20 20 22 29 46 58 66 68 66 65 68 65 60 58 56 54 51 48
39 44 64 95 96 90 81 80 71 51 34 20 18 20 22 22 26 43 72 89 96 92 93 86 78 66 61 56 54 51 50 49
36 40 56 70 82 82 76 65 54 31 20 21 25 26 25 28 42 41 41 58 82 88 86 86 92 84 75 68 60 52 45 44
49 47 61 80 75 72 68 51 27 20 23 27 27 29 35 59 87 95 95 85 78 72 72 71 71 68 61 54 50 49 44 37
63 53 66 68 69 60 40 23 21 24 26 26 28 34 52 81 96 100 100 96 83 74 64 60 56 48 42 37 34 29 25 22
50 45 50 53 40 24 20 23 27 26 27 27 31 60 79 96 100 100 100 98 80 68 61 49 41 36 30 28 27 24 24 24
41 32 24 20 21 21 25 29 29 28 28 29 37 70 76 82 89 93 79 71 70 62 54 39 31 28 28 28 28 31 30 29
17 16 17 21 24 27 28 29 28 30 30 34 48 68 73 79 78 71 63 59 54 38 30 31 33 32 29 35 36 29 17 15
15 17 20 24 26 26 27 28 29 31 38 52 76 70 72 76 76 69 60 41 26 24 26 29 30 33 40 33 17 15 14 12
18 22 23 25 25 24 27 27 29 35 45 69 71 79 84 76 70 47 34 27 32 33 27 28 33 42 26 17 14 13 12 10
21 21 22 23 22 22 24 28 34 57 75 78 87 82 79 57 38 33 34 42 41 37 29 32 44 21 15 13 12 10 9 8
16 17 17 20 20 25 31 40 61 70 85 87 84 76 47 40 46 47 36 28 28 34 29 40 18 14 12 11 9 8 6 6
15 17 20 22 25 29 48 74 82 81 85 79 62 46 53 54 35 28 26 25 33 29 40 19 14 12 11 8 7 6 4 3
20 24 29 38 50 62 72 79 84 83 78 62 56 59 37 29 29 27 25 27 29 43 25 14 12 11 8 6 5 4 3 3
40 52 57 63 75 79 67 66 64 64 56 48 35 31 30 29 26 25 23 30 42 36 16 13 12 9 7 5 4 3 3 2
38 36 30 50 57 58 58 51 44 35 32 32 31 29 30 28 26 24 26 38 49 19 15 13 10 8 6 4 3 3 3 3
28 32 32 33 35 38 36 35 35 32 31 30 29 29 31 28 24 24 30 58 38 18 16 12 10 8 6 5 4 3 3 3

GFSFLT1_250_rhum_378.txt.gz
RH
72 68 65 67 60 56 48 39 38 55 71 56 56 60 60 58 44 27 17 15 16 21 22 21 22 23 28 49 81 78 79 79
80 67 62 55 50 42 39 39 46 58 63 60 62 58 45 31 19 16 18 21 24 24 21 24 28 34 43 51 88 100 100 98
52 46 39 37 35 37 38 37 34 46 54 57 43 30 21 19 18 21 26 27 27 26 27 36 38 44 66 86 91 92 100 100
44 42 43 36 35 32 31 32 38 39 35 25 21 18 22 22 24 28 28 27 28 30 38 62 81 81 70 73 92 100 100 99
33 35 33 29 40 35 35 33 26 20 18 18 18 20 24 24 28 28 26 27 29 36 51 79 86 98 97 89 83 84 86 91
31 31 45 33 30 27 25 17 14 18 18 21 26 27 27 28 28 27 30 30 31 42 55 72 92 95 98 100 100 98 95 95
30 29 30 30 25 19 15 14 17 22 23 29 41 32 30 30 29 30 31 33 40 55 69 86 99 100 96 84 84 85 81 80
22 20 17 16 18 19 17 20 26 28 33 44 60 31 28 28 29 32 36 44 50 57 69 79 86 85 81 75 66 58 53 49
12 14 17 19 22 17 28 30 34 42 52 43 28 25 26 26 30 36 47 67 81 86 89 79 69 63 53 43 35 33 31 30
13 15 19 24 23 22 23 34 58 67 32 22 23 26 26 30 30 45 64 86 94 91 78 58 43 36 34 34 29 25 23 22
16 16 17 18 20 30 48 34 21 20 19 24 25 26 29 40 58 74 90 87 72 55 48 43 36 28 22 21 20 19 18 17
14 16 18 17 19 20 20 21 21 23 26 26 30 41 53 64 75 82 74 64 50 39 31 26 23 22 21 19 17 16 17 18
14 15 16 17 19 23 24 29 36 36 36 41 50 58 67 74 70 56 39 32 32 31 27 23 22 21 19 17 20 25 21 14
16 17 17 17 19 20 22 23 23 28 35 42 58 68 64 45 34 31 32 34 32 29 24 22 22 19 20 30 20 15 13 11
17 16 17 17 18 19 21 23 25 28 34 38 39 35 32 31 30 32 32 32 30 25 23 23 21 31 28 16 14 11 10 8
18 19 20 21 21 22 24 24 25 28 31 32 32 32 32 32 32 32 30 28 24 24 24 24 44 22 16 14 11 8 7 6
19 20 21 21 22 22 23 24 24 26 28 29 30 30 28 27 28 29 27 23 24 24 27 52 21 18 16 13 9 7 6 5
19 20 20 21 22 23 25 26 28 27 28 28 28 27 25 26 30 28 24 24 25 29 59 26 23 19 16 10 8 6 5 4
18 18 18 18 19 20 21 22 23 24 25 25 24 24 24 28 27 26 25 25 31 69 34 31 24 25 13 10 7 6 4 4